FW5428 Weather Reports


time (UTC)temp
F
wind
direction
speed
knots
gust
knots
rain 1hr
in
rain 24hr
in
rain mn
in
humidity
%
barometer
mb
20260507212149 56 315 6.1 13.9 0.00 0.22 0.37 81 1002.5
20260507211128 56 270 8.7 14.8 0.00 0.22 0.37 80 1001.9
20260507210618 56 225 9.6 13.9 0.00 0.22 0.37 80 1001.8
20260507210108 56 270 7.0 13.9 0.00 0.22 0.37 81 1002.1
20260507205558 56 270 8.7 13.0 0.00 0.22 0.37 81 1001.7
20260507205047 56 270 4.3 13.9 0.00 0.22 0.37 81 1001.6
20260507204537 56 270 3.5 13.9 0.00 0.22 0.37 81 1001.7
20260507204028 56 270 9.6 14.8 0.00 0.22 0.37 80 1002.0
20260507203517 56 270 4.3 14.8 0.00 0.22 0.37 80 1001.9
20260507203007 57 270 8.7 18.2 0.00 0.22 0.37 79 1002.0
20260507202457 57 270 10.4 20.9 0.00 0.22 0.37 78 1002.1
20260507201947 57 270 10.4 20.9 0.00 0.22 0.37 79 1001.1
20260507201436 57 225 11.3 20.9 0.00 0.22 0.37 79 1001.2
20260507200926 57 270 13.0 20.9 0.00 0.22 0.37 78 1001.6
20260507200417 57 270 7.8 18.2 0.00 0.22 0.37 79 1001.1
20260507195906 57 270 13.0 18.2 0.00 0.22 0.37 79 1001.8
20260507195357 57 270 9.6 18.2 0.00 0.22 0.37 80 1002.1
20260507194846 58 270 8.7 17.4 0.00 0.22 0.37 80 1001.7
20260507193826 58 270 13.0 19.1 0.00 0.22 0.37 79 1000.9
20260507193317 58 225 13.0 20.0 0.00 0.22 0.37 78 1000.2
20260507191745 58 225 17.4 23.5 0.00 0.22 0.37 79 1000.2
20260507191235 58 225 13.0 19.1 0.00 0.22 0.37 80 1000.3
20260507190725 58 270 12.2 20.9 0.00 0.22 0.37 79 1000.0
20260507190216 58 270 14.8 20.9 0.00 0.22 0.37 78 999.9
20260507185705 58 225 16.5 23.5 0.00 0.22 0.37 78 999.9
20260507185155 59 180 17.4 23.5 0.00 0.22 0.37 80 1000.1
20260507184645 58 270 14.8 22.6 0.00 0.22 0.37 81 1000.9
20260507184135 58 225 14.8 23.5 0.00 0.22 0.37 81 1000.4
20260507183625 58 270 15.6 23.5 0.00 0.22 0.37 81 1001.2
20260507183114 58 270 13.0 27.8 0.00 0.22 0.37 81 1001.6
20260507182604 58 270 15.6 27.8 0.00 0.22 0.37 81 1002.3
20260507182051 59 270 14.8 23.5 0.00 0.22 0.37 81 1002.5
20260507181541 59 270 11.3 21.7 0.00 0.22 0.37 82 1002.7
20260507181031 59 270 10.4 18.2 0.00 0.22 0.37 81 1002.1
20260507180524 59 270 10.4 18.2 0.00 0.22 0.37 81 1001.6
20260507180013 59 270 11.3 19.1 0.00 0.22 0.37 81 1001.8
20260507175503 59 0 7.8 24.3 0.00 0.22 0.37 81 1001.8
20260507174954 59 270 14.8 24.3 0.00 0.22 0.37 81 1002.1
20260507174443 59 270 15.6 23.5 0.00 0.22 0.37 81 1001.8
20260507173933 59 225 18.2 21.7 0.00 0.22 0.37 81 1002.3
20260507172913 59 270 9.6 24.3 0.00 0.22 0.37 85 1002.1
20260507172402 60 270 14.8 26.9 0.00 0.22 0.37 85 1002.6
20260507171904 60 270 19.1 26.9 0.00 0.22 0.37 85 1002.3
20260507171344 61 270 13.9 21.7 0.00 0.22 0.37 85 1002.6
20260507170833 61 270 13.0 20.9 0.00 0.22 0.37 82 1002.8
20260507170322 61 225 13.0 20.9 0.00 0.22 0.37 80 1002.9
20260507165812 61 270 14.8 20.9 0.00 0.22 0.37 82 1002.9
20260507165306 61 180 8.7 20.9 0.00 0.22 0.37 84 1002.7
20260507164753 62 270 8.7 20.9 0.00 0.22 0.37 84 1002.9
20260507164242 62 270 10.4 20.9 0.00 0.22 0.37 84 1002.9
20260507163733 62 270 13.9 23.5 0.00 0.22 0.37 83 1002.6
20260507163222 63 270 13.9 23.5 0.00 0.22 0.37 83 1002.5
20260507162201 63 180 0.0 25.2 0.00 0.22 0.37 85 1013.9
20260507161651 63 225 19.1 25.2 0.00 0.22 0.25 84 1001.7
20260507161142 63 270 13.0 22.6 0.00 0.22 0.25 85 1001.5
20260507160632 63 270 13.0 17.4 0.00 0.22 0.25 85 1001.5
20260507155102 63 270 6.1 18.2 0.00 0.22 0.25 88 1002.3
20260507154551 63 270 12.2 18.2 0.00 0.22 0.25 88 1001.7
20260507154040 63 270 14.8 18.2 0.00 0.22 0.25 89 1001.0
20260507153530 63 270 11.3 16.5 0.00 0.22 0.25 89 1001.1
20260507153021 63 225 11.3 22.6 0.00 0.22 0.25 88 1000.7
20260507152510 62 225 16.5 22.6 0.00 0.22 0.25 88 1000.3
20260507151450 62 180 7.0 14.8 0.00 0.22 0.25 89 999.7
20260507150940 63 225 5.2 16.5 0.00 0.22 0.25 89 1000.0
20260507145919 64 225 13.0 18.2 0.00 0.22 0.25 87 1000.5
20260507144859 64 180 13.9 14.8 0.00 0.22 0.25 87 999.7
20260507143839 63 180 8.7 13.9 0.00 0.22 0.25 86 1000.7
20260507143329 63 180 9.6 13.0 0.00 0.22 0.25 87 1000.6
20260507142828 63 180 7.0 11.3 0.00 0.22 0.25 88 1001.1
20260507141759 63 225 7.8 18.2 0.00 0.22 0.25 88 1001.3
20260507141248 63 225 7.8 20.0 0.00 0.22 0.25 89 1001.0
20260507140738 63 225 13.9 24.3 0.00 0.22 0.25 87 1000.3
20260507140228 63 180 19.1 24.3 0.00 0.22 0.25 87 1000.4
20260507135718 63 180 17.4 21.7 0.00 0.22 0.25 87 1000.3
20260507135208 63 180 13.0 20.9 0.00 0.22 0.25 87 1000.6
20260507134659 63 180 14.8 20.9 0.00 0.22 0.25 88 1000.4
20260507134148 63 135 13.9 23.5 0.00 0.22 0.25 89 1000.7
20260507133638 63 180 15.6 26.1 0.00 0.22 0.25 90 1000.7
20260507133128 63 225 16.5 29.5 0.00 0.22 0.25 90 1001.1
20260507132618 62 270 21.7 29.5 0.00 0.22 0.25 90 1001.2
20260507132108 62 180 16.5 29.5 0.01 0.22 0.25 90 1000.9
20260507131047 62 225 24.3 29.5 0.05 0.22 0.25 92 1000.9
20260507130538 62 270 10.4 23.5 0.05 0.22 0.25 92 1002.8
20260507130027 62 225 10.4 23.5 0.06 0.22 0.25 92 1002.9
20260507125517 62 225 18.2 23.5 0.06 0.22 0.25 92 1001.5
20260507125007 63 225 15.6 21.7 0.07 0.22 0.25 93 1001.1
20260507124456 63 225 11.3 14.8 0.07 0.22 0.25 93 1001.8
20260507123947 63 270 7.8 13.0 0.07 0.22 0.25 93 1002.8
20260507123437 63 270 8.7 14.8 0.08 0.22 0.25 93 1002.7
20260507122926 63 180 9.6 14.8 0.11 0.22 0.25 93 1001.5
20260507122416 63 180 9.6 15.6 0.18 0.22 0.25 93 1001.5
20260507121906 63 180 7.0 16.5 0.19 0.21 0.24 93 1002.0
20260507121356 63 225 13.0 16.5 0.17 0.18 0.20 93 1002.2
20260507120847 63 270 9.6 22.6 0.17 0.18 0.20 93 1002.2
20260507115315 63 270 14.8 19.1 0.15 0.17 0.19 93 1001.4
20260507114809 63 225 10.4 19.1 0.14 0.15 0.18 93 1001.3
20260507114255 63 270 6.1 20.0 0.14 0.15 0.18 93 1001.2
20260507113236 64 270 10.4 14.8 0.12 0.13 0.17 94 1001.2
20260507112725 64 180 11.3 13.9 0.08 0.09 0.12 94 1000.3
20260507112215 64 0 3.5 13.0 0.01 0.02 0.05 93 1002.7
20260507111706 64 270 7.8 14.8 0.01 0.02 0.05 94 1001.6
20260507111155 64 225 7.0 17.4 0.00 0.01 0.04 94 1000.7
20260507110645 64 180 9.6 17.4 0.00 0.01 0.04 94 999.3
20260507110134 64 225 13.0 17.4 0.00 0.01 0.04 94 999.5
20260507105624 63 180 12.2 14.8 0.00 0.01 0.04 94 998.9
20260507105114 63 180 7.0 14.8 0.00 0.01 0.04 94 999.2
20260507104054 63 270 9.6 14.8 0.00 0.01 0.04 95 999.7
20260507103545 63 225 10.4 15.6 0.00 0.01 0.04 95 999.0
20260507103034 63 225 9.6 15.6 0.00 0.01 0.04 95 998.2
20260507102524 63 225 10.4 13.9 0.00 0.01 0.04 95 997.3
20260507102013 63 180 5.2 7.8 0.00 0.01 0.04 95 998.3
20260507101503 63 90 0.9 9.6 0.00 0.01 0.04 95 998.4
20260507100953 63 90 1.7 9.6 0.00 0.01 0.04 95 997.9
20260507100443 63 135 7.0 9.6 0.00 0.01 0.04 95 997.5
20260507095933 63 90 7.0 9.6 0.00 0.01 0.04 95 996.7
20260507095427 63 180 7.0 9.6 0.01 0.01 0.04 95 997.3
20260507094403 63 135 5.2 9.6 0.01 0.01 0.04 94 997.0
20260507093853 63 180 3.5 7.8 0.01 0.01 0.04 94 996.9
20260507093343 63 180 3.5 5.2 0.01 0.01 0.04 94 997.1
20260507092832 63 180 1.7 4.3 0.01 0.01 0.04 94 997.7
20260507091302 63 0 5.2 8.7 0.01 0.01 0.04 94 998.5
20260507090751 63 0 0.9 7.0 0.01 0.01 0.04 94 998.4
20260507090242 63 90 3.5 9.6 0.01 0.01 0.04 94 997.9
20260507085731 63 90 2.6 11.3 0.00 0.00 0.04 94 997.6
20260507085221 63 135 7.8 13.9 0.00 0.00 0.02 93 997.5
20260507084711 63 90 7.0 14.8 0.00 0.00 0.02 93 997.3
20260507084201 63 135 9.6 14.8 0.00 0.00 0.02 93 997.1
20260507083651 63 90 3.5 6.1 0.00 0.00 0.02 93 997.7
20260507064925 75 225 33.9 50.4 0.02 0.02 0.02 85 1000.3
20260507064415 76 315 7.8 17.4 0.01 0.01 0.01 85 999.1
20260507062845 77 0 6.1 18.2 0.00 0.00 0.00 83 999.3
20260507061824 77 0 3.5 20.0 0.00 0.00 0.00 82 999.2
20260507061314 77 315 11.3 18.2 0.00 0.00 0.00 82 999.2
20260507060804 77 270 10.4 0.0 0.00 0.00 0.00 82 999.1
20260507060158 76 315 7.8 0.0 0.00 0.00 0.00 82 998.5
20260507060001 76 315 7.8 14.8 0.00 0.00 0.00 82 998.5
20260507055444 76 0 8.7 14.8 0.00 0.00 0.00 82 998.4
20260507054934 76 0 7.0 14.8 0.00 0.00 0.00 82 998.6
20260507054425 76 0 7.0 15.6 0.00 0.00 0.00 82 998.6
20260507053915 76 315 8.7 15.6 0.00 0.00 0.00 82 998.9
20260507052344 76 270 6.1 13.9 0.00 0.00 0.00 83 999.3
20260507051834 76 315 9.6 16.5 0.00 0.00 0.00 82 999.4
20260507050813 76 0 5.2 20.0 0.00 0.00 0.00 82 999.3
20260507050304 76 0 6.1 16.5 0.00 0.00 0.00 83 998.9
20260507045753 76 0 7.0 22.6 0.00 0.00 0.00 83 998.7
20260507045243 76 0 7.0 22.6 0.00 0.00 0.00 83 998.2
20260507044222 76 0 10.4 20.0 0.00 0.00 0.00 83 998.6
20260507043713 76 0 7.0 18.2 0.00 0.00 0.00 83 998.5
20260507043203 76 0 7.0 22.6 0.00 0.00 0.00 83 998.6
20260507042653 76 0 7.8 22.6 0.00 0.00 0.00 83 998.5
20260507042143 76 0 8.7 18.2 0.00 0.00 0.00 83 998.4
20260507041633 76 0 6.1 16.5 0.00 0.00 0.00 84 998.1
20260507041123 76 270 3.5 16.5 0.00 0.00 0.00 84 998.3
20260507040059 76 270 7.8 16.5 0.00 0.00 0.00 83 999.1
20260507035551 76 0 8.7 17.4 0.00 0.00 0.00 83 999.4
20260507034532 75 0 5.2 14.8 0.00 0.00 0.00 84 999.5
20260507034022 75 0 7.0 18.2 0.00 0.00 0.00 84 999.7
20260507033511 75 0 8.7 18.2 0.00 0.00 0.00 84 999.4
20260507033001 75 0 7.8 13.0 0.00 0.00 0.00 85 999.7
20260507032451 75 270 3.5 18.2 0.00 0.00 0.00 85 999.8
20260507031941 75 315 4.3 18.2 0.00 0.00 0.00 85 1000.0
20260507031430 74 0 3.5 13.0 0.00 0.00 0.00 85 1000.2
20260507030921 74 0 6.1 13.0 0.00 0.00 0.00 85 1000.4
20260507030410 74 0 6.1 11.3 0.00 0.00 0.00 86 1000.4
20260507025351 75 0 2.6 10.4 0.00 0.00 0.01 85 1000.5
20260507024841 75 0 1.7 11.3 0.00 0.00 0.01 85 1000.4
20260507022800 75 0 6.1 11.3 0.00 0.00 0.01 85 1000.6
20260507022249 76 0 3.5 11.3 0.00 0.00 0.01 85 1000.7
20260507021739 76 0 5.2 14.8 0.00 0.00 0.01 85 1000.8
20260507021230 76 0 3.5 14.8 0.00 0.00 0.01 84 1000.9
20260507020720 76 0 6.1 11.3 0.00 0.00 0.01 84 1000.8
20260507015659 76 0 3.5 13.0 0.00 0.00 0.01 83 1001.2
20260507015149 77 0 7.0 13.0 0.00 0.00 0.01 83 1001.2
20260507014639 77 315 7.0 13.0 0.00 0.00 0.01 83 1001.2
20260507014129 77 270 4.3 13.9 0.00 0.00 0.01 83 1001.4
20260507013619 77 0 6.1 13.9 0.00 0.00 0.01 83 1001.3
20260507013108 77 0 7.0 14.8 0.00 0.00 0.01 83 1001.2
20260507012049 77 0 5.2 13.9 0.00 0.00 0.01 83 1001.6
20260507011538 78 135 7.0 14.8 0.00 0.00 0.01 82 1001.5
20260507010012 78 45 7.8 17.4 0.00 0.00 0.01 82 1001.8
20260507005458 78 0 7.0 20.0 0.00 0.00 0.01 82 1001.6
20260507004947 78 315 7.8 20.0 0.00 0.00 0.01 82 1001.8
20260507004438 78 0 5.2 13.0 0.00 0.00 0.01 82 1001.9
20260507003928 78 0 7.0 14.8 0.00 0.00 0.01 82 1001.9
20260507002907 78 90 1.7 13.9 0.00 0.00 0.01 82 1001.9
20260507001906 78 0 7.0 18.2 0.00 0.00 0.01 81 1001.9
20260507001336 78 315 5.2 14.8 0.00 0.00 0.01 81 1001.7
20260507000839 78 315 5.2 14.8 0.00 0.00 0.01 81 1001.7
20260507000317 78 0 7.8 17.4 0.00 0.00 0.01 82 1001.8
20260506235257 77 0 4.3 14.8 0.00 0.00 0.01 83 1001.6
20260506234746 77 45 7.0 16.5 0.00 0.00 0.01 84 1001.5
20260506234236 77 0 7.0 16.5 0.00 0.00 0.01 84 1001.5
20260506233726 77 0 6.1 14.8 0.00 0.00 0.01 84 1001.5
20260506233216 77 0 7.8 13.9 0.00 0.00 0.01 84 1001.8
20260506232707 78 45 6.1 13.9 0.00 0.00 0.01 84 1001.8
20260506232156 78 0 6.1 13.0 0.00 0.00 0.01 83 1002.2
20260506231645 78 180 6.1 13.0 0.00 0.00 0.01 83 1002.3
20260506231135 78 0 6.1 13.0 0.00 0.00 0.01 82 1002.4
20260506230115 78 0 2.6 12.2 0.00 0.00 0.01 82 1002.6
20260506225605 79 270 4.3 12.2 0.00 0.00 0.01 81 1002.6
20260506225055 79 45 4.3 13.0 0.00 0.00 0.01 81 1002.6
20260506224545 79 0 3.5 13.0 0.00 0.00 0.01 80 1002.5
20260506223525 80 270 0.9 13.9 0.00 0.00 0.01 79 1002.4
20260506223015 80 0 4.3 13.9 0.00 0.00 0.01 78 1002.4
20260506221954 80 0 6.1 13.0 0.00 0.00 0.01 78 1002.2
20260506221445 80 45 5.2 13.0 0.00 0.00 0.01 78 1002.5
20260506220424 81 0 3.5 13.0 0.00 0.00 0.01 77 1002.3
20260506215914 81 0 7.0 14.8 0.00 0.00 0.01 77 1002.5
20260506214854 81 0 6.1 13.0 0.00 0.00 0.01 77 1002.2
20260506214344 81 0 1.7 13.0 0.00 0.00 0.01 77 1002.4
20260506213833 81 90 3.5 13.0 0.00 0.00 0.01 76 1002.4
20260506213323 81 0 7.8 13.0 0.00 0.00 0.01 76 1002.4
20260506212814 82 0 5.2 11.3 0.00 0.00 0.01 76 1002.3